STARLINK N (44247 NORAD) Tracking and Keplerian Element Data

This shows tracking and keplerian element data for the satellite.

Feedback or suggestion? Click here.




ElementValue
Catalog44247
NameSTARLINK N
Epoch Orbit474
Epoch Day174.39879617
Epoch Year2019
RAAN35.9645
Inclination53.0035
Eccentricity0.0002118
Argument of Perigee96.8926
Mean Anonmoly263.2303
Mean Motion15.05676575
Decay Rate0.0036152
L11 44247U 19029N 19174.39879617 .00361520 00000-0 23524-1 0 9998
L22 44247 53.0035 35.9645 0002118 96.8926 263.2303 15.05676575 4744

Live tracking and technical data element details for STARLINK N (NORAD 44247). STARLINK N can be tracked NOW for your location showing map with azimuth and elevation plus other details from your city location.

Track the satellite on the map from your city or location and see movement details for azimuth, elevation, latitude, longitude, range, height, and movement on the map or in text.







IsCatalogInMostPopularTable: catalog: 44247, numindb: 38
Update: records affected: 1



GetName: 44247 STARLINK N

Hit Count: updated at: Tue, 23 Jul 2019 02:31:26 GMT